    Orbital elements:
    2013 AO27                                                Earth MOID = 0.0582 AU
    Epoch 2020 May 31.0 TT = JDT 2459000.5                  Veres
    M   1.96687              (2000.0)            P               Q
    n   0.26319348     Peri.  189.49288     +0.84934923     +0.52538458
    a   2.4114928      Node   138.68308     -0.47909185     +0.80771201
    e   0.8787979      Incl.    4.40972     -0.22153304     +0.26753008
    P   3.74           H   19.8           G   0.15           U   3
    Residuals in seconds of arc
    130105 703  1.1-  0.6+    130107 H21  0.2+  0.4+    200321 F52  0.0   0.0
    130105 703  0.1-  0.7-    130107 H36  0.1+  0.1-    200323 D29  0.2+  0.2+
    130105 703  0.7-  0.6-    130107 H36  1.0+  0.4+    200323 D29  0.0   0.2+
    130105 703  0.1+  0.9+    130107 H36  0.3+  0.2-    200323 D29  0.1+  0.2-
    130105 H01  0.0   0.0     130107 G96  0.4+  0.0     200324 246 (1.6-  1.0-)
    130105 H01  0.0   0.1+    130107 H36  1.0+  0.3+    200324 246 (2.9+  0.4-)
    130105 703  0.6-  1.2-    130107 G96  0.3+  0.1+    200324 246 (2.1+  0.7+)
    130105 H01  0.2-  0.0     130107 G96  0.1-  0.1+    200324 246 (2.4+  0.6-)
    130105 703  0.2+  0.9+    130107 G96  0.3-  0.2+    200324 246  1.1+  0.9+
    130105 703  0.2-  0.2+    130107 G96  0.3+  0.2-    200324 246  0.1+  1.2+
    130105 703  0.3+  0.7+    130107 G96  0.3-  0.1+    200324 246(14.5+  1.3+)
    130105 H01  0.1+  0.3+    130107 G96  0.2-  0.0     200324 L01  0.4+  0.4+
    130105 900 (2.0+  1.5-)   130108 G96  0.2+  0.1+    200324 I93  0.3+  0.4-
    130105 900  0.0   0.1-    130108 G96  0.2-  0.0     200324 L01  0.1+  0.1+
    130105 900  0.9-  0.3-    130108 G96  0.0   0.2-    200324 L01  0.1-  0.1-
    130105 461  0.4-  0.4-    130108 G96  0.1+  0.2+    200324 L01  0.0   0.3+
    130105 461  0.1-  0.3+    130109 704  0.5+  0.6+    200324 I93  0.3-  0.4+
    130105 461  0.1+  0.2+    130109 704  0.1+  0.4+    200324 I93  0.1+  0.0
    130105 461  0.3+  0.2-    130109 704  0.7-  1.0+    200324 033  0.2-  0.1-
    130105 157  0.6-  1.0-    130109 704  0.7+  1.1+    200324 033  0.3-  0.0
    130105 157  0.4-  0.4-    130109 704  0.2+  0.2-    200324 033  0.2-  0.3-
    130105 J87  0.2+  0.0     130110 704  0.5-  0.9+    200324 033  0.2-  0.1+
    130105 J87  0.1+  0.1-    130110 704  0.9+  0.2+    200324 033  0.1-  0.4-
    130105 J87  0.1+  0.4-    130110 704  1.0+  0.4-    200324 033  0.6-  0.7-
    130105 104  0.2+  0.3-    130110 704  0.5+  1.2+    200324 I52  0.2+  0.0
    130105 J87  0.4-  0.2+    130110 291  0.4-  0.0     200324 I52  0.2-  0.3+
    130105 104  0.2+  0.2-    130110 291  0.3-  0.0     200324 I52  0.0   0.1+
    130105 104  0.1+  0.1-    130110 291  0.3-  0.3+    200324 I52  0.4+  0.2-
    130105 204  0.5+  0.2-    130112 807  0.3-  0.4-    200324 198  0.3+  0.6-
    130105 204  0.4+  0.2-    130112 807  0.1+  0.2-    200324 198  0.1-  0.1-
    130105 204  0.2+  0.1-    130112 807  0.1-  0.3+    200324 198  0.1+  1.3-
    130106 I19  0.7+  0.2-    130112 807  0.0   0.3-    200325 198  0.6-  0.4-
    130106 I19  0.7+  0.3+    130112 807  0.2+  0.5-    200325 246  0.6-  0.4+
    130106 I19  0.4+  0.1+    130115 H21  0.1-  0.2-    200325 246  0.0   0.0
    130106 807  0.4+  0.6-    130115 H21  0.3-  0.2-    200325 246  0.0   0.1+
    130106 807  0.5+  0.5-    130115 H21  0.2+  0.2-    200325 246  0.5+  0.6-
    130106 807  0.3+  0.2-    130118 H21  0.1+  0.1+    200325 246  0.3+  0.2-
    130106 H01  0.5-  0.0     130118 H21  0.0   0.2+    200325 033  0.3-  0.2-
    130106 H01  0.5-  0.1+    130118 H21  0.0   0.1-    200325 033  0.1-  0.8-
    130106 H01  0.7-  0.1-    130118 H21  0.0   0.1-    200325 033  0.1-  0.2+
    130106 704  0.1+  0.4-    130118 H21  0.2-  0.2-    200325 K87  0.6+  0.2-
    130106 H01  0.1-  0.1+    130120 711  1.0-  0.7+    200325 K87  0.2+  0.2+
    130106 704  1.0+  0.4-    130120 711  0.1-  0.4-    200325 K87  0.0   0.4+
    130106 704  0.8-  0.2-    130120 711  0.6-  0.2+    200325 033  0.5-  0.1-
    130106 704 (2.3+  0.2-)   130120 711  0.6-  0.5+    200325 033  0.6-  0.0
    130106 651  0.3+  0.1-    130201 291  0.4-  0.1+    200325 033  0.3-  0.1+
    130106 651  0.3-  0.7-    130201 291  0.3-  0.0     200325 I47  0.2+  0.1-
    130106 651  0.9-  0.1+    130201 291  0.2-  0.1+    200325 I47  0.1+  0.2+
    130107 H21  0.1-  0.0     200321 F52  0.2-  0.0     200325 I47  0.1-  0.4+
    130107 H21  0.2-  0.1+    200321 F52  0.0   0.1+    200325 I47  0.0   0.4+
    
    Ephemeris:
    2013 AO27                a,e,i = 2.41, 0.88, 4                   q = 0.2923
    Date    TT    R. A. (2000) Decl.     Delta      r    Elong.  Phase     V
    2020 02 24    14 29 26.7 -08 58 12   1.0448  1.7300   116.5    30.8    22.4
    ...
    2020 03 10    14 49 39.6 -08 24 30   0.7121  1.5292   126.7    31.4    21.3
    ...
    2020 03 18    15 03 19.5 -07 24 54   0.5439  1.4148   131.3    31.9    20.6
    ...
    2020 03 24    15 17 06.7 -06 00 27   0.4225  1.3253   133.9    32.9    19.9
    2020 03 25    15 19 56.4 -05 40 56   0.4028  1.3100   134.1    33.1    19.8
    2020 03 26    15 22 58.9 -05 19 18   0.3831  1.2946   134.3    33.5    19.7
    ...
    2020 04 01    15 48 19.4 -02 02 06   0.2689  1.2003   133.5    37.2    18.8
    ...
    2020 04 09    17 18 27.1 +10 24 07   0.1362  1.0682   115.9    57.5    17.7
    ...
    2020 04 24    00 54 55.0 +22 44 49   0.2247  0.7980    19.8   154.8    25.5
    
    A. U. Tomatic                (C) Copyright 2020 MPC           M.P.E.C. 2020-F123
    


    Read MPEC 2020-F122 Read MPEC 2020-F124


    MPEC number:

    Enter an MPEC number in one of the following forms:

    • 1997-B01 (the full form)
    • J97B01 (the packed version of the full form)
    • B01 (the abbreviated form)